Weather in Upington

South Africa     28°27′32″S   21°13′04″E
temp.,
°C
wind,
m/s
gust,
m/s
humid.,
%
clouds,
%
prec.,
mm/h
press.,
hPa
HPBL,
m
18 april, sun
sun1823:00+24e44100 0.0 101934
02:00+21ene45120 0.0 101942
05:00+20ne44140 0.0 101936
08:00+20ne47350 0.0 1021188
11:00+28nnw66280 0.0 10201164
14:00+31nnw43210 0.0 10173115
17:00+31nnw33194 0.0 10163248
20:00+26n33250 0.0 101720
19 april, mon
mon1923:00+24n223037 0.2 101812
02:00+23nne123881 1.2 101815
05:00+21n454111 0.2 101953
08:00+21nnw36392 0.6 1020174
11:00+28nnw34232 0.0 10191091
14:00+31nw21194 0.0 10163431
17:00+31e111825 0.0 10153391
20:00+27ene33237 0.3 101613
20 april, tue
tue2023:00+25wnw332895 0.1 101731
02:00+23se343410 0.1 101735
05:00+21nne22349 0.0 101711
08:00+23ne34315 0.0 101888
11:00+30nnw34192 0.0 10171379
14:00+32nw44166 0.0 10153777
17:00+31wnw441683 0.0 10143566
20:00+27wnw45205 0.0 101552
21 april, wed
wed2123:00+25nnw452159 0.0 101642
02:00+23n442462 0.0 101643
05:00+21ene222767 0.0 101614
08:00+22ne3325100 0.0 101866
11:00+29nnw671797 0.0 10171153
14:00+32nw661333 0.0 10143498
17:00+31nw661399 0.0 10133450
20:00+26nnw57175 0.0 101577
22 april, thu
thu2223:00+24n59215 0.0 1015108
02:00+22nnw613240 0.0 1015190
05:00+19nne13320 0.0 101636
08:00+20ne34300 0.0 1018121
11:00+29nnw68170 0.0 10171330
14:00+31nw55141 0.0 10143318
17:00+31nnw55144 0.0 10133490
20:00+25n56200 0.0 101566